Location: Bachas
(43.2439°N, 0.9375°E)
Time: 01:48:32
(UTC+00:00)

Cosmos 1743 Rocket - Pass Details

Date: 18 February 2020
Orbit: 605 x 632 km, 82.6° (Epoch: 03 April)

Event Time Altitude Azimuth Distance (km) Brightness Sun altitude
Rises 05:24:55 0° 345° (NNW) 2,871 6.8 -16.3°
Reaches altitude 10° 05:27:12 10° 339° (NNW) 1,962 5.9 -15.9°
Maximum altitude 05:31:19 43° 267° (W) 851 3.8 -15.1°
Drops below altitude 10° 05:35:24 10° 196° (SSW) 1,950 6.0 -14.4°
Sets 05:37:40 0° 190° (S) 2,851 6.9 -14.0°
